Wetterdaten: aktuell Dienstag, 05.12.2023 20:55
Datum Zeit Temp. A. Temp. A. min Temp. A. max Feuchte A. Luftdruck Regen Wind Richtung Richtung Sonnenschein UV Solar Windben
05.12.2023 20:55 2,3 C 2,2 C 2,3 C 96 % 1008,1 hPa 0,0 l/m 9,7 km/h (2 Bft) W 270 0 min 0,0 UV-I 0 W/m 12,9 km/h (3 Bft)
05.12.2023 20:50 2,3 C 2,2 C 2,3 C 96 % 1008,0 hPa 0,0 l/m 11,3 km/h (2 Bft) W 270 0 min 0,0 UV-I 0 W/m 14,5 km/h (3 Bft)
05.12.2023 20:45 2,3 C 2,3 C 2,4 C 96 % 1008,0 hPa 0,0 l/m 14,5 km/h (3 Bft) W 270 0 min 0,0 UV-I 0 W/m 20,9 km/h (4 Bft)
05.12.2023 20:40 2,3 C 2,3 C 2,4 C 96 % 1007,9 hPa 0,0 l/m 12,9 km/h (3 Bft) W 270 0 min 0,0 UV-I 0 W/m 17,7 km/h (3 Bft)
05.12.2023 20:35 2,4 C 2,4 C 2,4 C 96 % 1007,8 hPa 0,0 l/m 12,9 km/h (3 Bft) W 270 0 min 0,0 UV-I 0 W/m 17,7 km/h (3 Bft)
05.12.2023 20:30 2,4 C 2,4 C 2,4 C 96 % 1007,8 hPa 0,0 l/m 9,7 km/h (2 Bft) W 270 0 min 0,0 UV-I 0 W/m 14,5 km/h (3 Bft)
05.12.2023 20:25 2,4 C 2,4 C 2,4 C 96 % 1007,8 hPa 0,0 l/m 6,4 km/h (2 Bft) W 270 0 min 0,0 UV-I 0 W/m 11,3 km/h (2 Bft)
05.12.2023 20:20 2,4 C 2,4 C 2,4 C 96 % 1007,7 hPa 0,0 l/m 8,0 km/h (2 Bft) W 270 0 min 0,0 UV-I 0 W/m 14,5 km/h (3 Bft)
05.12.2023 20:15 2,4 C 2,4 C 2,4 C 96 % 1007,7 hPa 0,0 l/m 8,0 km/h (2 Bft) W 270 0 min 0,0 UV-I 0 W/m 12,9 km/h (3 Bft)
05.12.2023 20:10 2,4 C 2,3 C 2,4 C 96 % 1007,7 hPa 0,0 l/m 8,0 km/h (2 Bft) W-NW 292 0 min 0,0 UV-I 0 W/m 12,9 km/h (3 Bft)
05.12.2023 20:05 2,4 C 2,3 C 2,4 C 96 % 1007,7 hPa 0,0 l/m 12,9 km/h (3 Bft) W-NW 292 0 min 0,0 UV-I 0 W/m 16,1 km/h (3 Bft)
05.12.2023 20:00 2,4 C 2,4 C 2,4 C 96 % 1007,6 hPa 0,0 l/m 11,3 km/h (2 Bft) W-NW 292 0 min 0,0 UV-I 0 W/m 17,7 km/h (3 Bft)
05.12.2023 19:55 2,4 C 2,4 C 2,4 C 96 % 1007,5 hPa 0,0 l/m 9,7 km/h (2 Bft) W 270 0 min 0,0 UV-I 0 W/m 14,5 km/h (3 Bft)
05.12.2023 19:50 2,4 C 2,4 C 2,4 C 96 % 1007,5 hPa 0,0 l/m 9,7 km/h (2 Bft) W-NW 292 0 min 0,0 UV-I 0 W/m 14,5 km/h (3 Bft)
05.12.2023 19:45 2,4 C 2,4 C 2,4 C 96 % 1007,5 hPa 0,0 l/m 11,3 km/h (2 Bft) W-NW 292 0 min 0,0 UV-I 0 W/m 17,7 km/h (3 Bft)
05.12.2023 19:40 2,4 C 2,4 C 2,4 C 96 % 1007,4 hPa 0,0 l/m 11,3 km/h (2 Bft) W-NW 292 0 min 0,0 UV-I 0 W/m 17,7 km/h (3 Bft)
05.12.2023 19:35 2,4 C 2,4 C 2,5 C 96 % 1007,3 hPa 0,0 l/m 11,3 km/h (2 Bft) W-NW 292 0 min 0,0 UV-I 0 W/m 16,1 km/h (3 Bft)
05.12.2023 19:30 2,4 C 2,4 C 2,5 C 96 % 1007,3 hPa 0,0 l/m 11,3 km/h (2 Bft) W 270 0 min 0,0 UV-I 0 W/m 17,7 km/h (3 Bft)
05.12.2023 19:25 2,5 C 2,4 C 2,6 C 96 % 1007,3 hPa 0,0 l/m 11,3 km/h (2 Bft) W 270 0 min 0,0 UV-I 0 W/m 14,5 km/h (3 Bft)
05.12.2023 19:20 2,6 C 2,5 C 2,6 C 96 % 1007,2 hPa 0,0 l/m 11,3 km/h (2 Bft) W 270 0 min 0,0 UV-I 0 W/m 16,1 km/h (3 Bft)
05.12.2023 19:15 2,6 C 2,6 C 2,6 C 96 % 1007,2 hPa 0,0 l/m 11,3 km/h (2 Bft) W 270 0 min 0,0 UV-I 0 W/m 16,1 km/h (3 Bft)
05.12.2023 19:10 2,6 C 2,6 C 2,6 C 96 % 1007,1 hPa 0,0 l/m 9,7 km/h (2 Bft) W 270 0 min 0,0 UV-I 0 W/m 16,1 km/h (3 Bft)
05.12.2023 19:05 2,6 C 2,5 C 2,6 C 96 % 1007,1 hPa 0,0 l/m 6,4 km/h (2 Bft) W-NW 292 0 min 0,0 UV-I 0 W/m 11,3 km/h (2 Bft)
05.12.2023 19:00 2,6 C 2,6 C 2,6 C 96 % 1007,0 hPa 0,0 l/m 8,0 km/h (2 Bft) W 270 0 min 0,0 UV-I 0 W/m 14,5 km/h (3 Bft)
05.12.2023 18:55 2,6 C 2,6 C 2,6 C 96 % 1007,0 hPa 0,0 l/m 9,7 km/h (2 Bft) W 270 0 min 0,0 UV-I 0 W/m 12,9 km/h (3 Bft)
05.12.2023 18:50 2,6 C 2,6 C 2,6 C 96 % 1006,9 hPa 0,0 l/m 8,0 km/h (2 Bft) W-NW 292 0 min 0,0 UV-I 0 W/m 12,9 km/h (3 Bft)
05.12.2023 18:45 2,6 C 2,6 C 2,6 C 96 % 1006,8 hPa 0,0 l/m 8,0 km/h (2 Bft) W 270 0 min 0,0 UV-I 0 W/m 12,9 km/h (3 Bft)
05.12.2023 18:40 2,6 C 2,6 C 2,6 C 96 % 1006,7 hPa 0,0 l/m 8,0 km/h (2 Bft) W-NW 292 0 min 0,0 UV-I 0 W/m 16,1 km/h (3 Bft)
05.12.2023 18:35 2,6 C 2,6 C 2,6 C 96 % 1006,7 hPa 0,0 l/m 9,7 km/h (2 Bft) W-NW 292 0 min 0,0 UV-I 0 W/m 12,9 km/h (3 Bft)
05.12.2023 18:30 2,6 C 2,6 C 2,6 C 96 % 1006,7 hPa 0,0 l/m 9,7 km/h (2 Bft) W-NW 292 0 min 0,0 UV-I 0 W/m 16,1 km/h (3 Bft)
05.12.2023 18:25 2,6 C 2,6 C 2,6 C 96 % 1006,6 hPa 0,0 l/m 8,0 km/h (2 Bft) W-NW 292 0 min 0,0 UV-I 0 W/m 14,5 km/h (3 Bft)
05.12.2023 18:20 2,6 C 2,6 C 2,6 C 96 % 1006,6 hPa 0,0 l/m 9,7 km/h (2 Bft) W-NW 292 0 min 0,0 UV-I 0 W/m 16,1 km/h (3 Bft)
05.12.2023 18:15 2,6 C 2,6 C 2,6 C 96 % 1006,5 hPa 0,0 l/m 11,3 km/h (2 Bft) W-NW 292 0 min 0,0 UV-I 0 W/m 17,7 km/h (3 Bft)
05.12.2023 18:10 2,6 C 2,6 C 2,7 C 96 % 1006,4 hPa 0,0 l/m 12,9 km/h (3 Bft) W-NW 292 0 min 0,0 UV-I 0 W/m 17,7 km/h (3 Bft)
05.12.2023 18:05 2,6 C 2,6 C 2,7 C 96 % 1006,4 hPa 0,0 l/m 12,9 km/h (3 Bft) W-NW 292 0 min 0,0 UV-I 0 W/m 17,7 km/h (3 Bft)
05.12.2023 18:00 2,7 C 2,6 C 2,7 C 96 % 1006,4 hPa 0,0 l/m 11,3 km/h (2 Bft) W 270 0 min 0,0 UV-I 0 W/m 17,7 km/h (3 Bft)
05.12.2023 17:55 2,7 C 2,6 C 2,7 C 96 % 1006,3 hPa 0,0 l/m 11,3 km/h (2 Bft) W 270 0 min 0,0 UV-I 0 W/m 16,1 km/h (3 Bft)
05.12.2023 17:50 2,7 C 2,7 C 2,7 C 96 % 1006,4 hPa 0,0 l/m 12,9 km/h (3 Bft) W-NW 292 0 min 0,0 UV-I 0 W/m 17,7 km/h (3 Bft)
05.12.2023 17:45 2,7 C 2,7 C 2,7 C 96 % 1006,3 hPa 0,0 l/m 12,9 km/h (3 Bft) W-NW 292 0 min 0,0 UV-I 0 W/m 17,7 km/h (3 Bft)
05.12.2023 17:40 2,7 C 2,7 C 2,7 C 96 % 1006,2 hPa 0,0 l/m 11,3 km/h (2 Bft) W 270 0 min 0,0 UV-I 0 W/m 17,7 km/h (3 Bft)
05.12.2023 17:35 2,7 C 2,7 C 2,7 C 96 % 1006,2 hPa 0,0 l/m 11,3 km/h (2 Bft) W-NW 292 0 min 0,0 UV-I 0 W/m 16,1 km/h (3 Bft)
05.12.2023 17:30 2,7 C 2,7 C 2,8 C 96 % 1006,0 hPa 0,0 l/m 9,7 km/h (2 Bft) W-NW 292 0 min 0,0 UV-I 0 W/m 14,5 km/h (3 Bft)
05.12.2023 17:25 2,8 C 2,8 C 2,8 C 96 % 1006,0 hPa 0,2 l/m 11,3 km/h (2 Bft) W-NW 292 0 min 0,0 UV-I 0 W/m 16,1 km/h (3 Bft)
05.12.2023 17:20 2,8 C 2,8 C 2,8 C 96 % 1005,8 hPa 0,0 l/m 11,3 km/h (2 Bft) W-NW 292 0 min 0,0 UV-I 0 W/m 17,7 km/h (3 Bft)
05.12.2023 17:15 2,8 C 2,8 C 2,8 C 96 % 1005,8 hPa 0,2 l/m 11,3 km/h (2 Bft) W-NW 292 0 min 0,0 UV-I 0 W/m 16,1 km/h (3 Bft)
05.12.2023 17:10 2,8 C 2,8 C 2,9 C 96 % 1005,6 hPa 0,0 l/m 12,9 km/h (3 Bft) W 270 0 min 0,0 UV-I 0 W/m 16,1 km/h (3 Bft)
05.12.2023 17:05 2,8 C 2,8 C 2,9 C 96 % 1005,5 hPa 0,0 l/m 9,7 km/h (2 Bft) W-NW 292 0 min 0,0 UV-I 0 W/m 16,1 km/h (3 Bft)
05.12.2023 17:00 2,9 C 2,9 C 2,9 C 96 % 1005,5 hPa 0,0 l/m 8,0 km/h (2 Bft) W-NW 292 0 min 0,0 UV-I 0 W/m 12,9 km/h (3 Bft)
05.12.2023 16:55 2,9 C 2,9 C 2,9 C 96 % 1005,5 hPa 0,2 l/m 9,7 km/h (2 Bft) W-NW 292 0 min 0,0 UV-I 0 W/m 16,1 km/h (3 Bft)
05.12.2023 16:50 2,9 C 2,9 C 2,9 C 96 % 1005,4 hPa 0,0 l/m 11,3 km/h (2 Bft) W-NW 292 0 min 0,0 UV-I 0 W/m 14,5 km/h (3 Bft)
05.12.2023 16:45 2,9 C 2,9 C 3,0 C 96 % 1005,3 hPa 0,0 l/m 9,7 km/h (2 Bft) W-NW 292 0 min 0,0 UV-I 0 W/m 14,5 km/h (3 Bft)
05.12.2023 16:40 3,0 C 2,9 C 3,0 C 96 % 1005,1 hPa 0,0 l/m 11,3 km/h (2 Bft) W-NW 292 0 min 0,0 UV-I 0 W/m 17,7 km/h (3 Bft)
05.12.2023 16:35 2,9 C 2,9 C 3,1 C 96 % 1005,1 hPa 0,2 l/m 12,9 km/h (3 Bft) W-NW 292 0 min 0,0 UV-I 0 W/m 17,7 km/h (3 Bft)
05.12.2023 16:30 3,0 C 3,0 C 3,1 C 96 % 1005,0 hPa 0,0 l/m 12,9 km/h (3 Bft) W-NW 292 0 min 0,0 UV-I 0 W/m 17,7 km/h (3 Bft)
05.12.2023 16:25 3,1 C 3,1 C 3,2 C 96 % 1004,8 hPa 0,0 l/m 12,9 km/h (3 Bft) W 270 0 min 0,0 UV-I 0 W/m 17,7 km/h (3 Bft)
05.12.2023 16:20 3,2 C 3,2 C 3,3 C 96 % 1004,7 hPa 0,0 l/m 11,3 km/h (2 Bft) W 270 0 min 0,0 UV-I 0 W/m 16,1 km/h (3 Bft)
05.12.2023 16:15 3,3 C 3,3 C 3,3 C 96 % 1004,7 hPa 0,0 l/m 11,3 km/h (2 Bft) W 270 0 min 0,0 UV-I 0 W/m 16,1 km/h (3 Bft)
05.12.2023 16:10 3,2 C 3,2 C 3,3 C 96 % 1004,6 hPa 0,0 l/m 9,7 km/h (2 Bft) W-NW 292 0 min 0,0 UV-I 0 W/m 16,1 km/h (3 Bft)
05.12.2023 16:05 3,3 C 3,3 C 3,3 C 96 % 1004,5 hPa 0,0 l/m 9,7 km/h (2 Bft) W-NW 292 0 min 0,0 UV-I 0 W/m 16,1 km/h (3 Bft)
05.12.2023 16:00 3,3 C 3,3 C 3,4 C 96 % 1004,4 hPa 0,0 l/m 9,7 km/h (2 Bft) W-NW 292 0 min 0,0 UV-I 0 W/m 17,7 km/h (3 Bft)
05.12.2023 15:55 3,4 C 3,3 C 3,4 C 96 % 1004,3 hPa 0,0 l/m 12,9 km/h (3 Bft) W-NW 292 0 min 0,0 UV-I 0 W/m 17,7 km/h (3 Bft)
05.12.2023 15:50 3,4 C 3,4 C 3,5 C 96 % 1004,2 hPa 0,0 l/m 9,7 km/h (2 Bft) W 270 0 min 0,0 UV-I 0 W/m 16,1 km/h (3 Bft)
05.12.2023 15:45 3,4 C 3,4 C 3,6 C 96 % 1004,1 hPa 0,0 l/m 11,3 km/h (2 Bft) W-NW 292 0 min 0,0 UV-I 0 W/m 16,1 km/h (3 Bft)
05.12.2023 15:40 3,6 C 3,6 C 3,7 C 96 % 1004,0 hPa 0,0 l/m 11,3 km/h (2 Bft) W 270 0 min 0,0 UV-I 0 W/m 17,7 km/h (3 Bft)
05.12.2023 15:35 3,6 C 3,6 C 3,7 C 96 % 1003,9 hPa 0,0 l/m 12,9 km/h (3 Bft) W-NW 292 0 min 0,0 UV-I 0 W/m 16,1 km/h (3 Bft)
05.12.2023 15:30 3,7 C 3,7 C 3,8 C 96 % 1003,9 hPa 0,0 l/m 11,3 km/h (2 Bft) W-NW 292 0 min 0,0 UV-I 0 W/m 16,1 km/h (3 Bft)
05.12.2023 15:25 3,8 C 3,8 C 3,9 C 96 % 1003,7 hPa 0,0 l/m 11,3 km/h (2 Bft) W-NW 292 0 min 0,0 UV-I 5 W/m 16,1 km/h (3 Bft)
05.12.2023 15:20 3,9 C 3,9 C 3,9 C 96 % 1003,7 hPa 0,0 l/m 11,3 km/h (2 Bft) W-NW 292 0 min 0,0 UV-I 9 W/m 16,1 km/h (3 Bft)
05.12.2023 15:15 3,9 C 3,9 C 4,1 C 96 % 1003,7 hPa 0,0 l/m 11,3 km/h (2 Bft) W-NW 292 0 min 0,0 UV-I 12 W/m 17,7 km/h (3 Bft)
05.12.2023 15:10 4,1 C 4,0 C 4,1 C 96 % 1003,6 hPa 0,0 l/m 12,9 km/h (3 Bft) W-NW 292 0 min 0,0 UV-I 12 W/m 17,7 km/h (3 Bft)
05.12.2023 15:05 4,1 C 4,1 C 4,2 C 96 % 1003,5 hPa 0,0 l/m 11,3 km/h (2 Bft) W-NW 292 0 min 0,0 UV-I 14 W/m 17,7 km/h (3 Bft)
05.12.2023 15:00 4,2 C 4,2 C 4,3 C 96 % 1003,5 hPa 0,0 l/m 11,3 km/h (2 Bft) W-NW 292 0 min 0,0 UV-I 12 W/m 17,7 km/h (3 Bft)
05.12.2023 14:55 4,4 C 4,4 C 4,5 C 96 % 1003,5 hPa 0,2 l/m 11,3 km/h (2 Bft) W-NW 292 0 min 0,0 UV-I 14 W/m 16,1 km/h (3 Bft)
05.12.2023 14:50 4,5 C 4,5 C 4,6 C 96 % 1003,4 hPa 0,0 l/m 8,0 km/h (2 Bft) W-NW 292 0 min 0,0 UV-I 11 W/m 12,9 km/h (3 Bft)
05.12.2023 14:45 4,5 C 4,5 C 4,7 C 96 % 1003,3 hPa 0,0 l/m 11,3 km/h (2 Bft) W-NW 292 0 min 0,0 UV-I 12 W/m 16,1 km/h (3 Bft)
05.12.2023 14:40 4,7 C 4,7 C 4,8 C 96 % 1003,2 hPa 0,2 l/m 8,0 km/h (2 Bft) W-NW 292 0 min 0,0 UV-I 14 W/m 14,5 km/h (3 Bft)
05.12.2023 14:35 4,8 C 4,8 C 4,8 C 96 % 1003,1 hPa 0,0 l/m 8,0 km/h (2 Bft) NW 315 0 min 0,0 UV-I 18 W/m 12,9 km/h (3 Bft)
05.12.2023 14:30 4,8 C 4,8 C 4,9 C 96 % 1003,0 hPa 0,0 l/m 8,0 km/h (2 Bft) W-NW 292 0 min 0,0 UV-I 21 W/m 12,9 km/h (3 Bft)
05.12.2023 14:25 4,9 C 4,9 C 5,1 C 96 % 1002,9 hPa 0,0 l/m 8,0 km/h (2 Bft) W-NW 292 0 min 0,0 UV-I 21 W/m 12,9 km/h (3 Bft)
05.12.2023 14:20 5,1 C 5,1 C 5,2 C 96 % 1002,9 hPa 0,0 l/m 9,7 km/h (2 Bft) W-NW 292 0 min 0,0 UV-I 19 W/m 16,1 km/h (3 Bft)
05.12.2023 14:15 5,2 C 5,2 C 5,3 C 96 % 1002,9 hPa 0,0 l/m 9,7 km/h (2 Bft) W-NW 292 0 min 0,0 UV-I 16 W/m 12,9 km/h (3 Bft)
05.12.2023 14:10 5,3 C 5,3 C 5,5 C 96 % 1002,8 hPa 0,2 l/m 9,7 km/h (2 Bft) W-NW 292 0 min 0,0 UV-I 18 W/m 14,5 km/h (3 Bft)
05.12.2023 14:05 5,5 C 5,5 C 5,9 C 95 % 1002,8 hPa 0,0 l/m 11,3 km/h (2 Bft) W-NW 292 0 min 0,0 UV-I 19 W/m 14,5 km/h (3 Bft)
05.12.2023 14:00 5,9 C 5,9 C 6,4 C 95 % 1002,7 hPa 0,0 l/m 9,7 km/h (2 Bft) W-NW 292 0 min 0,0 UV-I 18 W/m 14,5 km/h (3 Bft)
05.12.2023 13:55 6,4 C 6,4 C 6,5 C 96 % 1002,7 hPa 0,2 l/m 8,0 km/h (2 Bft) S 180 0 min 0,0 UV-I 18 W/m 12,9 km/h (3 Bft)
05.12.2023 13:50 6,5 C 6,4 C 6,5 C 96 % 1002,6 hPa 0,0 l/m 8,0 km/h (2 Bft) S 180 0 min 0,0 UV-I 19 W/m 14,5 km/h (3 Bft)
05.12.2023 13:45 6,4 C 6,4 C 6,5 C 96 % 1002,5 hPa 0,0 l/m 8,0 km/h (2 Bft) S 180 0 min 0,0 UV-I 19 W/m 17,7 km/h (3 Bft)
05.12.2023 13:40 6,5 C 6,4 C 6,5 C 96 % 1002,5 hPa 0,0 l/m 8,0 km/h (2 Bft) S 180 0 min 0,0 UV-I 23 W/m 12,9 km/h (3 Bft)
05.12.2023 13:35 6,4 C 6,4 C 6,5 C 96 % 1002,4 hPa 0,0 l/m 6,4 km/h (2 Bft) S 180 0 min 0,0 UV-I 25 W/m 11,3 km/h (2 Bft)
05.12.2023 13:30 6,4 C 6,4 C 6,5 C 96 % 1002,4 hPa 0,0 l/m 9,7 km/h (2 Bft) S 180 0 min 0,0 UV-I 32 W/m 16,1 km/h (3 Bft)
05.12.2023 13:25 6,4 C 6,4 C 6,4 C 96 % 1002,3 hPa 0,0 l/m 8,0 km/h (2 Bft) S 180 0 min 0,0 UV-I 37 W/m 16,1 km/h (3 Bft)
05.12.2023 13:20 6,4 C 6,4 C 6,4 C 96 % 1002,2 hPa 0,0 l/m 8,0 km/h (2 Bft) S 180 0 min 0,0 UV-I 37 W/m 19,3 km/h (3 Bft)
05.12.2023 13:15 6,4 C 6,4 C 6,4 C 96 % 1002,2 hPa 0,0 l/m 8,0 km/h (2 Bft) S 180 0 min 0,0 UV-I 32 W/m 14,5 km/h (3 Bft)
05.12.2023 13:10 6,4 C 6,4 C 6,4 C 96 % 1002,2 hPa 0,0 l/m 6,4 km/h (2 Bft) S 180 0 min 0,0 UV-I 23 W/m 11,3 km/h (2 Bft)
05.12.2023 13:05 6,4 C 6,4 C 6,4 C 96 % 1002,2 hPa 0,0 l/m 9,7 km/h (2 Bft) S 180 0 min 0,0 UV-I 21 W/m 19,3 km/h (3 Bft)
05.12.2023 13:00 6,4 C 6,4 C 6,4 C 96 % 1002,3 hPa 0,0 l/m 9,7 km/h (2 Bft) S 180 0 min 0,0 UV-I 21 W/m 19,3 km/h (3 Bft)
05.12.2023 12:55 6,4 C 6,4 C 6,4 C 96 % 1002,2 hPa 0,0 l/m 8,0 km/h (2 Bft) S-SW 202 0 min 0,0 UV-I 23 W/m 12,9 km/h (3 Bft)
05.12.2023 12:50 6,4 C 6,4 C 6,5 C 96 % 1002,2 hPa 0,0 l/m 9,7 km/h (2 Bft) S 180 0 min 0,0 UV-I 21 W/m 14,5 km/h (3 Bft)
05.12.2023 12:45 6,4 C 6,4 C 6,5 C 96 % 1002,2 hPa 0,0 l/m 9,7 km/h (2 Bft) S 180 0 min 0,0 UV-I 32 W/m 16,1 km/h (3 Bft)
05.12.2023 12:40 6,4 C 6,4 C 6,5 C 96 % 1002,2 hPa 0,0 l/m 11,3 km/h (2 Bft) S 180 0 min 0,0 UV-I 35 W/m 19,3 km/h (3 Bft)
05.12.2023 12:35 6,4 C 6,4 C 6,5 C 96 % 1002,1 hPa 0,0 l/m 11,3 km/h (2 Bft) S 180 0 min 0,0 UV-I 40 W/m 19,3 km/h (3 Bft)
05.12.2023 12:30 6,4 C 6,4 C 6,5 C 96 % 1002,1 hPa 0,2 l/m 9,7 km/h (2 Bft) S-SO 157 0 min 0,0 UV-I 46 W/m 17,7 km/h (3 Bft)
05.12.2023 12:25 6,4 C 6,4 C 6,4 C 96 % 1002,0 hPa 0,0 l/m 9,7 km/h (2 Bft) S 180 0 min 0,0 UV-I 44 W/m 17,7 km/h (3 Bft)
05.12.2023 12:20 6,4 C 6,4 C 6,4 C 96 % 1001,9 hPa 0,0 l/m 8,0 km/h (2 Bft) S-SO 157 0 min 0,0 UV-I 46 W/m 14,5 km/h (3 Bft)
05.12.2023 12:15 6,4 C 6,4 C 6,4 C 96 % 1002,0 hPa 0,0 l/m 8,0 km/h (2 Bft) S 180 0 min 0,0 UV-I 40 W/m 14,5 km/h (3 Bft)
05.12.2023 12:10 6,4 C 6,3 C 6,4 C 96 % 1002,0 hPa 0,0 l/m 9,7 km/h (2 Bft) S 180 0 min 0,0 UV-I 39 W/m 16,1 km/h (3 Bft)
05.12.2023 12:05 6,4 C 6,3 C 6,4 C 96 % 1001,9 hPa 0,0 l/m 8,0 km/h (2 Bft) S 180 0 min 0,0 UV-I 37 W/m 16,1 km/h (3 Bft)
05.12.2023 12:00 6,3 C 6,3 C 6,4 C 96 % 1001,9 hPa 0,0 l/m 9,7 km/h (2 Bft) S 180 0 min 0,0 UV-I 39 W/m 17,7 km/h (3 Bft)
05.12.2023 11:55 6,3 C 6,3 C 6,3 C 96 % 1001,9 hPa 0,0 l/m 9,7 km/h (2 Bft) S 180 0 min 0,0 UV-I 39 W/m 17,7 km/h (3 Bft)
05.12.2023 11:50 6,3 C 6,3 C 6,3 C 96 % 1002,0 hPa 0,0 l/m 9,7 km/h (2 Bft) S 180 0 min 0,0 UV-I 35 W/m 17,7 km/h (3 Bft)
05.12.2023 11:45 6,3 C 6,3 C 6,3 C 96 % 1001,9 hPa 0,2 l/m 9,7 km/h (2 Bft) S 180 0 min 0,0 UV-I 28 W/m 14,5 km/h (3 Bft)
05.12.2023 11:40 6,3 C 6,3 C 6,3 C 96 % 1001,9 hPa 0,0 l/m 8,0 km/h (2 Bft) S-SO 157 0 min 0,0 UV-I 25 W/m 12,9 km/h (3 Bft)
05.12.2023 11:35 6,2 C 6,2 C 6,3 C 96 % 1001,9 hPa 0,0 l/m 9,7 km/h (2 Bft) S 180 0 min 0,0 UV-I 23 W/m 19,3 km/h (3 Bft)
05.12.2023 11:30 6,3 C 6,2 C 6,3 C 96 % 1001,9 hPa 0,0 l/m 9,7 km/h (2 Bft) S-SO 157 0 min 0,0 UV-I 23 W/m 17,7 km/h (3 Bft)
05.12.2023 11:25 6,2 C 6,2 C 6,3 C 96 % 1001,9 hPa 0,0 l/m 9,7 km/h (2 Bft) S 180 0 min 0,0 UV-I 26 W/m 16,1 km/h (3 Bft)
05.12.2023 11:20 6,2 C 6,2 C 6,3 C 96 % 1001,9 hPa 0,0 l/m 9,7 km/h (2 Bft) S 180 0 min 0,0 UV-I 30 W/m 16,1 km/h (3 Bft)
05.12.2023 11:15 6,2 C 6,2 C 6,3 C 96 % 1001,9 hPa 0,0 l/m 8,0 km/h (2 Bft) S 180 0 min 0,0 UV-I 33 W/m 14,5 km/h (3 Bft)
05.12.2023 11:10 6,2 C 6,2 C 6,2 C 96 % 1001,9 hPa 0,0 l/m 9,7 km/h (2 Bft) S 180 0 min 0,0 UV-I 33 W/m 14,5 km/h (3 Bft)
05.12.2023 11:05 6,2 C 6,2 C 6,2 C 96 % 1001,8 hPa 0,0 l/m 11,3 km/h (2 Bft) S 180 0 min 0,0 UV-I 32 W/m 17,7 km/h (3 Bft)
05.12.2023 11:00 6,2 C 6,2 C 6,2 C 96 % 1001,8 hPa 0,2 l/m 9,7 km/h (2 Bft) S 180 0 min 0,0 UV-I 32 W/m 16,1 km/h (3 Bft)
05.12.2023 10:55 6,2 C 6,1 C 6,2 C 96 % 1001,8 hPa 0,0 l/m 6,4 km/h (2 Bft) S 180 0 min 0,0 UV-I 30 W/m 14,5 km/h (3 Bft)
05.12.2023 10:50 6,2 C 6,1 C 6,2 C 96 % 1001,7 hPa 0,0 l/m 9,7 km/h (2 Bft) S 180 0 min 0,0 UV-I 32 W/m 19,3 km/h (3 Bft)
05.12.2023 10:45 6,1 C 6,1 C 6,1 C 96 % 1001,7 hPa 0,0 l/m 9,7 km/h (2 Bft) S-SO 157 0 min 0,0 UV-I 30 W/m 17,7 km/h (3 Bft)
05.12.2023 10:40 6,1 C 6,0 C 6,1 C 96 % 1001,6 hPa 0,0 l/m 9,7 km/h (2 Bft) S-SO 157 0 min 0,0 UV-I 28 W/m 19,3 km/h (3 Bft)
05.12.2023 10:35 6,1 C 6,0 C 6,1 C 96 % 1001,5 hPa 0,0 l/m 8,0 km/h (2 Bft) S-SO 157 0 min 0,0 UV-I 26 W/m 14,5 km/h (3 Bft)
05.12.2023 10:30 6,0 C 5,9 C 6,0 C 96 % 1001,5 hPa 0,2 l/m 8,0 km/h (2 Bft) S-SO 157 0 min 0,0 UV-I 25 W/m 17,7 km/h (3 Bft)
05.12.2023 10:25 5,9 C 5,9 C 6,0 C 96 % 1001,5 hPa 0,0 l/m 11,3 km/h (2 Bft) S-SO 157 0 min 0,0 UV-I 21 W/m 20,9 km/h (4 Bft)
05.12.2023 10:20 5,9 C 5,9 C 5,9 C 96 % 1001,5 hPa 0,0 l/m 8,0 km/h (2 Bft) S-SO 157 0 min 0,0 UV-I 19 W/m 17,7 km/h (3 Bft)
05.12.2023 10:15 5,9 C 5,8 C 5,9 C 96 % 1001,4 hPa 0,0 l/m 9,7 km/h (2 Bft) S-SO 157 0 min 0,0 UV-I 19 W/m 16,1 km/h (3 Bft)
05.12.2023 10:10 5,8 C 5,8 C 5,9 C 96 % 1001,4 hPa 0,0 l/m 9,7 km/h (2 Bft) S-SO 157 0 min 0,0 UV-I 18 W/m 22,5 km/h (4 Bft)
05.12.2023 10:05 5,8 C 5,8 C 5,8 C 96 % 1001,4 hPa 0,0 l/m 9,7 km/h (2 Bft) S-SO 157 0 min 0,0 UV-I 16 W/m 14,5 km/h (3 Bft)
05.12.2023 10:00 5,8 C 5,7 C 5,8 C 96 % 1001,3 hPa 0,0 l/m 9,7 km/h (2 Bft) S-SO 157 0 min 0,0 UV-I 16 W/m 17,7 km/h (3 Bft)
05.12.2023 09:55 5,8 C 5,7 C 5,8 C 96 % 1001,3 hPa 0,0 l/m 9,7 km/h (2 Bft) S-SO 157 0 min 0,0 UV-I 16 W/m 14,5 km/h (3 Bft)
05.12.2023 09:50 5,7 C 5,7 C 5,7 C 96 % 1001,3 hPa 0,0 l/m 9,7 km/h (2 Bft) S-SO 157 0 min 0,0 UV-I 14 W/m 17,7 km/h (3 Bft)
05.12.2023 09:45 5,7 C 5,6 C 5,7 C 96 % 1001,3 hPa 0,0 l/m 9,7 km/h (2 Bft) S-SO 157 0 min 0,0 UV-I 14 W/m 20,9 km/h (4 Bft)
05.12.2023 09:40 5,6 C 5,6 C 5,7 C 96 % 1001,2 hPa 0,0 l/m 8,0 km/h (2 Bft) S-SO 157 0 min 0,0 UV-I 14 W/m 14,5 km/h (3 Bft)
05.12.2023 09:35 5,6 C 5,6 C 5,6 C 96 % 1001,2 hPa 0,0 l/m 8,0 km/h (2 Bft) S-SO 157 0 min 0,0 UV-I 14 W/m 16,1 km/h (3 Bft)
05.12.2023 09:30 5,6 C 5,6 C 5,6 C 96 % 1001,2 hPa 0,0 l/m 6,4 km/h (2 Bft) S-SO 157 0 min 0,0 UV-I 14 W/m 14,5 km/h (3 Bft)
05.12.2023 09:25 5,6 C 5,5 C 5,6 C 96 % 1001,1 hPa 0,0 l/m 9,7 km/h (2 Bft) S-SO 157 0 min 0,0 UV-I 12 W/m 16,1 km/h (3 Bft)
05.12.2023 09:20 5,5 C 5,4 C 5,6 C 96 % 1001,0 hPa 0,0 l/m 8,0 km/h (2 Bft) SO 135 0 min 0,0 UV-I 14 W/m 17,7 km/h (3 Bft)
05.12.2023 09:15 5,5 C 5,4 C 5,5 C 96 % 1001,0 hPa 0,0 l/m 9,7 km/h (2 Bft) S-SO 157 0 min 0,0 UV-I 19 W/m 19,3 km/h (3 Bft)
05.12.2023 09:10 5,4 C 5,4 C 5,4 C 96 % 1001,1 hPa 0,0 l/m 9,7 km/h (2 Bft) S-SO 157 0 min 0,0 UV-I 19 W/m 17,7 km/h (3 Bft)
05.12.2023 09:05 5,4 C 5,4 C 5,4 C 96 % 1001,0 hPa 0,2 l/m 8,0 km/h (2 Bft) S 180 0 min 0,0 UV-I 16 W/m 14,5 km/h (3 Bft)
05.12.2023 09:00 5,4 C 5,3 C 5,4 C 96 % 1000,9 hPa 0,0 l/m 8,0 km/h (2 Bft) S-SO 157 0 min 0,0 UV-I 16 W/m 14,5 km/h (3 Bft)
05.12.2023 08:55 5,4 C 5,3 C 5,4 C 96 % 1000,9 hPa 0,0 l/m 9,7 km/h (2 Bft) S-SO 157 0 min 0,0 UV-I 12 W/m 16,1 km/h (3 Bft)
05.12.2023 08:50 5,3 C 5,3 C 5,3 C 95 % 1000,9 hPa 0,2 l/m 9,7 km/h (2 Bft) S-SO 157 0 min 0,0 UV-I 11 W/m 16,1 km/h (3 Bft)
05.12.2023 08:45 5,3 C 5,3 C 5,3 C 95 % 1000,8 hPa 0,0 l/m 11,3 km/h (2 Bft) S-SO 157 0 min 0,0 UV-I 9 W/m 20,9 km/h (4 Bft)
05.12.2023 08:40 5,3 C 5,3 C 5,3 C 95 % 1000,8 hPa 0,0 l/m 9,7 km/h (2 Bft) S-SO 157 0 min 0,0 UV-I 9 W/m 17,7 km/h (3 Bft)
05.12.2023 08:35 5,3 C 5,2 C 5,3 C 95 % 1000,7 hPa 0,0 l/m 9,7 km/h (2 Bft) S-SO 157 0 min 0,0 UV-I 7 W/m 17,7 km/h (3 Bft)
05.12.2023 08:30 5,3 C 5,2 C 5,3 C 95 % 1000,7 hPa 0,2 l/m 6,4 km/h (2 Bft) S-SO 157 0 min 0,0 UV-I 5 W/m 16,1 km/h (3 Bft)
05.12.2023 08:25 5,2 C 5,2 C 5,3 C 95 % 1000,6 hPa 0,0 l/m 9,7 km/h (2 Bft) S-SO 157 0 min 0,0 UV-I 0 W/m 19,3 km/h (3 Bft)
05.12.2023 08:20 5,2 C 5,2 C 5,3 C 95 % 1000,6 hPa 0,2 l/m 11,3 km/h (2 Bft) S-SO 157 0 min 0,0 UV-I 0 W/m 17,7 km/h (3 Bft)
05.12.2023 08:15 5,2 C 5,2 C 5,2 C 95 % 1000,5 hPa 0,0 l/m 11,3 km/h (2 Bft) S-SO 157 0 min 0,0 UV-I 0 W/m 22,5 km/h (4 Bft)
05.12.2023 08:10 5,2 C 5,1 C 5,2 C 95 % 1000,4 hPa 0,0 l/m 12,9 km/h (3 Bft) S-SO 157 0 min 0,0 UV-I 0 W/m 27,4 km/h (5 Bft)
05.12.2023 08:05 5,1 C 5,1 C 5,2 C 95 % 1000,3 hPa 0,2 l/m 11,3 km/h (2 Bft) S-SO 157 0 min 0,0 UV-I 0 W/m 22,5 km/h (4 Bft)
05.12.2023 08:00 5,2 C 5,1 C 5,2 C 95 % 1000,3 hPa 0,0 l/m 12,9 km/h (3 Bft) S-SO 157 0 min 0,0 UV-I 0 W/m 24,1 km/h (4 Bft)
05.12.2023 07:55 5,1 C 5,1 C 5,1 C 95 % 1000,2 hPa 0,0 l/m 11,3 km/h (2 Bft) S-SO 157 0 min 0,0 UV-I 0 W/m 17,7 km/h (3 Bft)
05.12.2023 07:50 5,1 C 5,1 C 5,1 C 95 % 1000,2 hPa 0,2 l/m 12,9 km/h (3 Bft) S-SO 157 0 min 0,0 UV-I 0 W/m 24,1 km/h (4 Bft)
05.12.2023 07:45 5,1 C 5,1 C 5,1 C 95 % 1000,2 hPa 0,0 l/m 12,9 km/h (3 Bft) S-SO 157 0 min 0,0 UV-I 0 W/m 25,7 km/h (4 Bft)
05.12.2023 07:40 5,1 C 5,1 C 5,1 C 95 % 1000,1 hPa 0,0 l/m 11,3 km/h (2 Bft) S-SO 157 0 min 0,0 UV-I 0 W/m 25,7 km/h (4 Bft)
05.12.2023 07:35 5,1 C 5,0 C 5,1 C 95 % 999,9 hPa 0,0 l/m 11,3 km/h (2 Bft) S-SO 157 0 min 0,0 UV-I 0 W/m 20,9 km/h (4 Bft)
05.12.2023 07:30 5,0 C 5,0 C 5,1 C 95 % 999,8 hPa 0,0 l/m 11,3 km/h (2 Bft) S-SO 157 0 min 0,0 UV-I 0 W/m 20,9 km/h (4 Bft)
05.12.2023 07:25 5,0 C 4,9 C 5,0 C 95 % 999,9 hPa 0,2 l/m 11,3 km/h (2 Bft) S 180 0 min 0,0 UV-I 0 W/m 20,9 km/h (4 Bft)
05.12.2023 07:20 5,0 C 4,9 C 5,0 C 95 % 999,8 hPa 0,0 l/m 9,7 km/h (2 Bft) S-SO 157 0 min 0,0 UV-I 0 W/m 19,3 km/h (3 Bft)
05.12.2023 07:15 4,9 C 4,9 C 4,9 C 95 % 999,8 hPa 0,0 l/m 9,7 km/h (2 Bft) S-SO 157 0 min 0,0 UV-I 0 W/m 19,3 km/h (3 Bft)
05.12.2023 07:10 4,9 C 4,9 C 4,9 C 95 % 999,7 hPa 0,0 l/m 11,3 km/h (2 Bft) S-SO 157 0 min 0,0 UV-I 0 W/m 19,3 km/h (3 Bft)
05.12.2023 07:05 4,9 C 4,9 C 4,9 C 95 % 999,8 hPa 0,0 l/m 9,7 km/h (2 Bft) S-SO 157 0 min 0,0 UV-I 0 W/m 19,3 km/h (3 Bft)
05.12.2023 07:00 4,9 C 4,8 C 4,9 C 95 % 999,7 hPa 0,2 l/m 9,7 km/h (2 Bft) S-SO 157 0 min 0,0 UV-I 0 W/m 17,7 km/h (3 Bft)
05.12.2023 06:55 4,9 C 4,8 C 4,9 C 95 % 999,7 hPa 0,0 l/m 11,3 km/h (2 Bft) S-SO 157 0 min 0,0 UV-I 0 W/m 24,1 km/h (4 Bft)
05.12.2023 06:50 4,8 C 4,8 C 4,8 C 95 % 999,7 hPa 0,0 l/m 11,3 km/h (2 Bft) S-SO 157 0 min 0,0 UV-I 0 W/m 22,5 km/h (4 Bft)
05.12.2023 06:45 4,8 C 4,7 C 4,8 C 95 % 999,7 hPa 0,0 l/m 14,5 km/h (3 Bft) S-SO 157 0 min 0,0 UV-I 0 W/m 25,7 km/h (4 Bft)
05.12.2023 06:40 4,8 C 4,7 C 4,8 C 95 % 999,7 hPa 0,2 l/m 11,3 km/h (2 Bft) S-SO 157 0 min 0,0 UV-I 0 W/m 22,5 km/h (4 Bft)
05.12.2023 06:35 4,7 C 4,7 C 4,7 C 95 % 999,6 hPa 0,0 l/m 8,0 km/h (2 Bft) S-SO 157 0 min 0,0 UV-I 0 W/m 14,5 km/h (3 Bft)
05.12.2023 06:30 4,7 C 4,6 C 4,7 C 95 % 999,5 hPa 0,0 l/m 8,0 km/h (2 Bft) S 180 0 min 0,0 UV-I 0 W/m 12,9 km/h (3 Bft)
05.12.2023 06:25 4,7 C 4,6 C 4,7 C 95 % 999,6 hPa 0,2 l/m 8,0 km/h (2 Bft) S-SO 157 0 min 0,0 UV-I 0 W/m 17,7 km/h (3 Bft)
05.12.2023 06:20 4,6 C 4,6 C 4,6 C 95 % 999,5 hPa 0,0 l/m 9,7 km/h (2 Bft) S-SO 157 0 min 0,0 UV-I 0 W/m 17,7 km/h (3 Bft)
05.12.2023 06:15 4,6 C 4,6 C 4,6 C 95 % 999,4 hPa 0,0 l/m 8,0 km/h (2 Bft) S-SO 157 0 min 0,0 UV-I 0 W/m 19,3 km/h (3 Bft)
05.12.2023 06:10 4,6 C 4,5 C 4,6 C 95 % 999,4 hPa 0,0 l/m 8,0 km/h (2 Bft) S-SO 157 0 min 0,0 UV-I 0 W/m 17,7 km/h (3 Bft)
05.12.2023 06:05 4,5 C 4,4 C 4,5 C 95 % 999,3 hPa 0,0 l/m 6,4 km/h (2 Bft) S-SO 157 0 min 0,0 UV-I 0 W/m 19,3 km/h (3 Bft)
05.12.2023 06:00 4,5 C 4,4 C 4,5 C 95 % 999,4 hPa 0,0 l/m 8,0 km/h (2 Bft) S-SO 157 0 min 0,0 UV-I 0 W/m 20,9 km/h (4 Bft)
05.12.2023 05:55 4,4 C 4,4 C 4,5 C 95 % 999,4 hPa 0,0 l/m 8,0 km/h (2 Bft) SO 135 0 min 0,0 UV-I 0 W/m 20,9 km/h (4 Bft)
05.12.2023 05:50 4,4 C 4,4 C 4,4 C 95 % 999,4 hPa 0,2 l/m 6,4 km/h (2 Bft) S-SO 157 0 min 0,0 UV-I 0 W/m 17,7 km/h (3 Bft)
05.12.2023 05:45 4,4 C 4,4 C 4,4 C 95 % 999,4 hPa 0,2 l/m 6,4 km/h (2 Bft) SO 135 0 min 0,0 UV-I 0 W/m 20,9 km/h (4 Bft)
05.12.2023 05:40 4,4 C 4,3 C 4,4 C 95 % 999,4 hPa 0,0 l/m 11,3 km/h (2 Bft) S-SO 157 0 min 0,0 UV-I 0 W/m 20,9 km/h (4 Bft)
05.12.2023 05:35 4,3 C 4,3 C 4,4 C 94 % 999,3 hPa 0,2 l/m 8,0 km/h (2 Bft) S-SO 157 0 min 0,0 UV-I 0 W/m 20,9 km/h (4 Bft)
05.12.2023 05:30 4,3 C 4,3 C 4,3 C 94 % 999,4 hPa 0,2 l/m 6,4 km/h (2 Bft) S-SO 157 0 min 0,0 UV-I 0 W/m 19,3 km/h (3 Bft)
05.12.2023 05:25 4,3 C 4,2 C 4,3 C 95 % 999,4 hPa 0,0 l/m 8,0 km/h (2 Bft) S-SO 157 0 min 0,0 UV-I 0 W/m 19,3 km/h (3 Bft)
05.12.2023 05:20 4,2 C 4,2 C 4,3 C 94 % 999,4 hPa 0,2 l/m 6,4 km/h (2 Bft) S-SO 157 0 min 0,0 UV-I 0 W/m 16,1 km/h (3 Bft)
05.12.2023 05:15 4,3 C 4,2 C 4,3 C 94 % 999,4 hPa 0,2 l/m 4,8 km/h (1 Bft) S-SO 157 0 min 0,0 UV-I 0 W/m 11,3 km/h (2 Bft)
05.12.2023 05:10 4,2 C 4,2 C 4,3 C 94 % 999,3 hPa 0,0 l/m 6,4 km/h (2 Bft) O-SO 112 0 min 0,0 UV-I 0 W/m 24,1 km/h (4 Bft)
05.12.2023 05:05 4,2 C 4,2 C 4,2 C 94 % 999,3 hPa 0,0 l/m 6,4 km/h (2 Bft) SO 135 0 min 0,0 UV-I 0 W/m 17,7 km/h (3 Bft)
05.12.2023 05:00 4,2 C 4,2 C 4,3 C 94 % 999,2 hPa 0,0 l/m 6,4 km/h (2 Bft) SO 135 0 min 0,0 UV-I 0 W/m 22,5 km/h (4 Bft)
05.12.2023 04:55 4,2 C 4,2 C 4,2 C 94 % 999,3 hPa 0,0 l/m 8,0 km/h (2 Bft) SO 135 0 min 0,0 UV-I 0 W/m 19,3 km/h (3 Bft)
05.12.2023 04:50 4,2 C 4,2 C 4,2 C 94 % 999,3 hPa 0,0 l/m 8,0 km/h (2 Bft) SO 135 0 min 0,0 UV-I 0 W/m 20,9 km/h (4 Bft)
05.12.2023 04:45 4,2 C 4,2 C 4,2 C 94 % 999,3 hPa 0,0 l/m 6,4 km/h (2 Bft) S-SO 157 0 min 0,0 UV-I 0 W/m 20,9 km/h (4 Bft)
05.12.2023 04:40 4,2 C 4,1 C 4,2 C 94 % 999,4 hPa 0,0 l/m 8,0 km/h (2 Bft) S-SO 157 0 min 0,0 UV-I 0 W/m 20,9 km/h (4 Bft)
05.12.2023 04:35 4,1 C 4,1 C 4,2 C 94 % 999,4 hPa 0,0 l/m 8,0 km/h (2 Bft) S-SO 157 0 min 0,0 UV-I 0 W/m 24,1 km/h (4 Bft)
05.12.2023 04:30 4,1 C 4,1 C 4,1 C 94 % 999,4 hPa 0,2 l/m 8,0 km/h (2 Bft) S-SO 157 0 min 0,0 UV-I 0 W/m 16,1 km/h (3 Bft)
05.12.2023 04:25 4,1 C 4,0 C 4,1 C 94 % 999,4 hPa 0,0 l/m 6,4 km/h (2 Bft) S-SO 157 0 min 0,0 UV-I 0 W/m 20,9 km/h (4 Bft)
05.12.2023 04:20 4,0 C 3,9 C 4,0 C 94 % 999,5 hPa 0,2 l/m 8,0 km/h (2 Bft) SO 135 0 min 0,0 UV-I 0 W/m 22,5 km/h (4 Bft)
05.12.2023 04:15 3,9 C 3,9 C 4,0 C 94 % 999,5 hPa 0,0 l/m 9,7 km/h (2 Bft) S-SO 157 0 min 0,0 UV-I 0 W/m 17,7 km/h (3 Bft)
05.12.2023 04:10 3,9 C 3,9 C 3,9 C 94 % 999,5 hPa 0,0 l/m 11,3 km/h (2 Bft) S-SO 157 0 min 0,0 UV-I 0 W/m 22,5 km/h (4 Bft)
05.12.2023 04:05 3,9 C 3,9 C 3,9 C 94 % 999,6 hPa 0,0 l/m 9,7 km/h (2 Bft) S-SO 157 0 min 0,0 UV-I 0 W/m 20,9 km/h (4 Bft)
05.12.2023 04:00 3,9 C 3,9 C 3,9 C 94 % 999,4 hPa 0,2 l/m 9,7 km/h (2 Bft) S-SO 157 0 min 0,0 UV-I 0 W/m 22,5 km/h (4 Bft)
05.12.2023 03:55 3,9 C 3,9 C 3,9 C 94 % 999,5 hPa 0,0 l/m 9,7 km/h (2 Bft) S-SO 157 0 min 0,0 UV-I 0 W/m 25,7 km/h (4 Bft)
05.12.2023 03:50 3,9 C 3,9 C 3,9 C 94 % 999,5 hPa 0,0 l/m 8,0 km/h (2 Bft) S-SO 157 0 min 0,0 UV-I 0 W/m 16,1 km/h (3 Bft)
05.12.2023 03:45 3,9 C 3,8 C 3,9 C 94 % 999,6 hPa 0,0 l/m 9,7 km/h (2 Bft) S-SO 157 0 min 0,0 UV-I 0 W/m 25,7 km/h (4 Bft)
05.12.2023 03:40 3,9 C 3,8 C 3,9 C 94 % 999,7 hPa 0,2 l/m 8,0 km/h (2 Bft) SO 135 0 min 0,0 UV-I 0 W/m 20,9 km/h (4 Bft)
05.12.2023 03:35 3,8 C 3,8 C 3,9 C 94 % 999,7 hPa 0,2 l/m 6,4 km/h (2 Bft) S-SO 157 0 min 0,0 UV-I 0 W/m 14,5 km/h (3 Bft)
05.12.2023 03:30 3,8 C 3,8 C 3,8 C 94 % 999,8 hPa 0,0 l/m 8,0 km/h (2 Bft) S-SO 157 0 min 0,0 UV-I 0 W/m 17,7 km/h (3 Bft)
05.12.2023 03:25 3,8 C 3,8 C 3,8 C 94 % 999,9 hPa 0,2 l/m 9,7 km/h (2 Bft) S-SO 157 0 min 0,0 UV-I 0 W/m 22,5 km/h (4 Bft)
05.12.2023 03:20 3,8 C 3,8 C 3,8 C 94 % 999,8 hPa 0,0 l/m 9,7 km/h (2 Bft) S-SO 157 0 min 0,0 UV-I 0 W/m 20,9 km/h (4 Bft)
05.12.2023 03:15 3,8 C 3,8 C 3,8 C 94 % 999,8 hPa 0,0 l/m 9,7 km/h (2 Bft) S-SO 157 0 min 0,0 UV-I 0 W/m 19,3 km/h (3 Bft)
05.12.2023 03:10 3,8 C 3,7 C 3,8 C 94 % 999,7 hPa 0,0 l/m 9,7 km/h (2 Bft) S-SO 157 0 min 0,0 UV-I 0 W/m 19,3 km/h (3 Bft)
05.12.2023 03:05 3,7 C 3,7 C 3,7 C 94 % 999,8 hPa 0,0 l/m 8,0 km/h (2 Bft) S-SO 157 0 min 0,0 UV-I 0 W/m 20,9 km/h (4 Bft)
05.12.2023 03:00 3,7 C 3,7 C 3,7 C 94 % 999,8 hPa 0,0 l/m 8,0 km/h (2 Bft) SO 135 0 min 0,0 UV-I 0 W/m 17,7 km/h (3 Bft)
05.12.2023 02:55 3,7 C 3,7 C 3,7 C 94 % 999,8 hPa 0,0 l/m 8,0 km/h (2 Bft) S-SO 157 0 min 0,0 UV-I 0 W/m 20,9 km/h (4 Bft)
05.12.2023 02:50 3,7 C 3,7 C 3,7 C 94 % 999,8 hPa 0,0 l/m 8,0 km/h (2 Bft) SO 135 0 min 0,0 UV-I 0 W/m 20,9 km/h (4 Bft)
05.12.2023 02:45 3,7 C 3,6 C 3,7 C 94 % 999,8 hPa 0,0 l/m 8,0 km/h (2 Bft) S-SO 157 0 min 0,0 UV-I 0 W/m 16,1 km/h (3 Bft)
05.12.2023 02:40 3,6 C 3,6 C 3,7 C 94 % 999,9 hPa 0,0 l/m 6,4 km/h (2 Bft) SO 135 0 min 0,0 UV-I 0 W/m 22,5 km/h (4 Bft)
05.12.2023 02:35 3,6 C 3,6 C 3,7 C 94 % 1000,0 hPa 0,0 l/m 8,0 km/h (2 Bft) SO 135 0 min 0,0 UV-I 0 W/m 19,3 km/h (3 Bft)
05.12.2023 02:30 3,6 C 3,6 C 3,6 C 94 % 1000,1 hPa 0,0 l/m 8,0 km/h (2 Bft) SO 135 0 min 0,0 UV-I 0 W/m 20,9 km/h (4 Bft)
05.12.2023 02:25 3,6 C 3,6 C 3,6 C 94 % 1000,0 hPa 0,0 l/m 9,7 km/h (2 Bft) S-SO 157 0 min 0,0 UV-I 0 W/m 17,7 km/h (3 Bft)
05.12.2023 02:20 3,6 C 3,5 C 3,6 C 94 % 1000,2 hPa 0,0 l/m 8,0 km/h (2 Bft) S-SO 157 0 min 0,0 UV-I 0 W/m 20,9 km/h (4 Bft)
05.12.2023 02:15 3,6 C 3,5 C 3,6 C 94 % 1000,1 hPa 0,0 l/m 8,0 km/h (2 Bft) S-SO 157 0 min 0,0 UV-I 0 W/m 19,3 km/h (3 Bft)
05.12.2023 02:10 3,5 C 3,4 C 3,6 C 94 % 1000,2 hPa 0,0 l/m 8,0 km/h (2 Bft) S-SO 157 0 min 0,0 UV-I 0 W/m 27,4 km/h (5 Bft)
05.12.2023 02:05 3,5 C 3,4 C 3,5 C 94 % 1000,1 hPa 0,0 l/m 8,0 km/h (2 Bft) SO 135 0 min 0,0 UV-I 0 W/m 17,7 km/h (3 Bft)
05.12.2023 02:00 3,4 C 3,4 C 3,5 C 94 % 1000,2 hPa 0,0 l/m 6,4 km/h (2 Bft) SO 135 0 min 0,0 UV-I 0 W/m 22,5 km/h (4 Bft)
05.12.2023 01:55 3,4 C 3,4 C 3,4 C 94 % 1000,1 hPa 0,0 l/m 6,4 km/h (2 Bft) SO 135 0 min 0,0 UV-I 0 W/m 19,3 km/h (3 Bft)
05.12.2023 01:50 3,4 C 3,4 C 3,4 C 94 % 1000,1 hPa 0,0 l/m 8,0 km/h (2 Bft) S-SO 157 0 min 0,0 UV-I 0 W/m 17,7 km/h (3 Bft)
05.12.2023 01:45 3,4 C 3,4 C 3,4 C 94 % 1000,1 hPa 0,0 l/m 8,0 km/h (2 Bft) SO 135 0 min 0,0 UV-I 0 W/m 24,1 km/h (4 Bft)
05.12.2023 01:40 3,4 C 3,4 C 3,4 C 94 % 1000,2 hPa 0,0 l/m 8,0 km/h (2 Bft) SO 135 0 min 0,0 UV-I 0 W/m 17,7 km/h (3 Bft)
05.12.2023 01:35 3,4 C 3,4 C 3,4 C 94 % 1000,1 hPa 0,0 l/m 9,7 km/h (2 Bft) S-SO 157 0 min 0,0 UV-I 0 W/m 25,7 km/h (4 Bft)
05.12.2023 01:30 3,4 C 3,3 C 3,4 C 94 % 1000,2 hPa 0,0 l/m 9,7 km/h (2 Bft) S-SO 157 0 min 0,0 UV-I 0 W/m 27,4 km/h (5 Bft)
05.12.2023 01:25 3,3 C 3,3 C 3,4 C 94 % 1000,3 hPa 0,0 l/m 8,0 km/h (2 Bft) S-SO 157 0 min 0,0 UV-I 0 W/m 27,4 km/h (5 Bft)
05.12.2023 01:20 3,3 C 3,3 C 3,3 C 94 % 1000,2 hPa 0,0 l/m 8,0 km/h (2 Bft) SO 135 0 min 0,0 UV-I 0 W/m 19,3 km/h (3 Bft)
05.12.2023 01:15 3,3 C 3,3 C 3,3 C 94 % 1000,3 hPa 0,0 l/m 8,0 km/h (2 Bft) SO 135 0 min 0,0 UV-I 0 W/m 16,1 km/h (3 Bft)
05.12.2023 01:10 3,3 C 3,3 C 3,3 C 94 % 1000,4 hPa 0,0 l/m 8,0 km/h (2 Bft) S-SO 157 0 min 0,0 UV-I 0 W/m 22,5 km/h (4 Bft)
05.12.2023 01:05 3,3 C 3,3 C 3,3 C 94 % 1000,4 hPa 0,0 l/m 9,7 km/h (2 Bft) S-SO 157 0 min 0,0 UV-I 0 W/m 22,5 km/h (4 Bft)
05.12.2023 01:00 3,3 C 3,3 C 3,3 C 94 % 1000,5 hPa 0,0 l/m 8,0 km/h (2 Bft) S-SO 157 0 min 0,0 UV-I 0 W/m 22,5 km/h (4 Bft)
05.12.2023 00:55 3,3 C 3,2 C 3,3 C 94 % 1000,6 hPa 0,0 l/m 8,0 km/h (2 Bft) S-SO 157 0 min 0,0 UV-I 0 W/m 19,3 km/h (3 Bft)
05.12.2023 00:50 3,3 C 3,2 C 3,3 C 94 % 1000,6 hPa 0,0 l/m 8,0 km/h (2 Bft) S-SO 157 0 min 0,0 UV-I 0 W/m 24,1 km/h (4 Bft)
05.12.2023 00:45 3,2 C 3,2 C 3,2 C 94 % 1000,6 hPa 0,0 l/m 9,7 km/h (2 Bft) S-SO 157 0 min 0,0 UV-I 0 W/m 24,1 km/h (4 Bft)
05.12.2023 00:40 3,2 C 3,2 C 3,2 C 94 % 1000,6 hPa 0,0 l/m 8,0 km/h (2 Bft) S-SO 157 0 min 0,0 UV-I 0 W/m 22,5 km/h (4 Bft)
05.12.2023 00:35 3,2 C 3,2 C 3,2 C 94 % 1000,7 hPa 0,2 l/m 6,4 km/h (2 Bft) SO 135 0 min 0,0 UV-I 0 W/m 16,1 km/h (3 Bft)
05.12.2023 00:30 3,2 C 3,1 C 3,2 C 94 % 1000,7 hPa 0,0 l/m 6,4 km/h (2 Bft) S-SO 157 0 min 0,0 UV-I 0 W/m 17,7 km/h (3 Bft)
05.12.2023 00:25 3,2 C 3,1 C 3,2 C 94 % 1000,6 hPa 0,2 l/m 6,4 km/h (2 Bft) S-SO 157 0 min 0,0 UV-I 0 W/m 16,1 km/h (3 Bft)
05.12.2023 00:20 3,1 C 3,1 C 3,2 C 94 % 1000,7 hPa 0,0 l/m 8,0 km/h (2 Bft) SO 135 0 min 0,0 UV-I 0 W/m 17,7 km/h (3 Bft)
05.12.2023 00:15 3,1 C 3,1 C 3,1 C 94 % 1000,7 hPa 0,2 l/m 6,4 km/h (2 Bft) SO 135 0 min 0,0 UV-I 0 W/m 16,1 km/h (3 Bft)
05.12.2023 00:10 3,1 C 3,1 C 3,1 C 94 % 1000,8 hPa 0,0 l/m 8,0 km/h (2 Bft) S-SO 157 0 min 0,0 UV-I 0 W/m 22,5 km/h (4 Bft)
05.12.2023 00:05 3,1 C 3,1 C 3,1 C 94 % 1000,8 hPa 0,2 l/m 8,0 km/h (2 Bft) SO 135 0 min 0,0 UV-I 0 W/m 14,5 km/h (3 Bft)
05.12.2023 00:00 3,1 C 3,1 C 3,1 C 94 % 1000,8 hPa 0,0 l/m 8,0 km/h (2 Bft) S-SO 157 0 min 0,0 UV-I 0 W/m 19,3 km/h (3 Bft)
_ Min-Zeit 20:50 20:50 20:50 00:00 05:00 - 05:15 - - - - - 05:15
Minimum _ 2,2 C 2,2 C 2,3 C 94 % 999,2 hPa - 4,8 km/h (1 Bft) - - - - - 11,3 km/h (2 Bft)
_ Max-Zeit 12:30 12:15 12:30 08:55 20:55 00:05 06:45 - - 00:00 00:00 12:20 01:25
Maximum _ 6,5 C 6,4 C 6,5 C 96 % 1008,1 hPa 0,2 l/m 14,5 km/h
S-SO (3 Bft)
- - 0 min 0,0 UV-I 46 W/m 27,4 km/h
S-SO (5 Bft)
Durchschnitt _ 4,3 C 4,3 C 4,3 C 95 % 1002,3 hPa #7,6 l/m 9,4 km/h (2 Bft) S-SO - #0 min. 0,0 UV-I 22 W/m 17,8 km/h (3 Bft)